TimeCST,TemperatureF,Dew PointF,Humidity,Sea Level PressureIn,VisibilityMPH,Wind Direction,Wind SpeedMPH,Gust SpeedMPH,PrecipitationIn,Events,Conditions,WindDirDegrees,DateUTC
12:53 AM,30.0,27.0,88,30.41,9.0,SSW,3.5,-,N/A,,Clear,200,2011-12-24 06:53:00
1:53 AM,30.0,27.0,88,30.43,10.0,SSW,4.6,-,N/A,,Clear,210,2011-12-24 07:53:00
2:53 AM,27.0,25.0,92,30.44,8.0,SW,4.6,-,N/A,,Clear,220,2011-12-24 08:53:00
3:53 AM,26.1,23.0,88,30.45,8.0,SSW,4.6,-,N/A,,Clear,210,2011-12-24 09:53:00
4:53 AM,26.1,24.1,92,30.44,7.0,Calm,Calm,-,N/A,,Clear,0,2011-12-24 10:53:00
5:53 AM,28.9,27.0,92,30.46,7.0,South,5.8,-,N/A,,Clear,180,2011-12-24 11:53:00
6:53 AM,28.9,26.1,89,30.46,7.0,South,4.6,-,N/A,,Clear,180,2011-12-24 12:53:00
7:53 AM,28.9,27.0,92,30.46,5.0,South,3.5,-,N/A,,Clear,180,2011-12-24 13:53:00
8:53 AM,30.9,28.9,92,30.48,6.0,SSW,3.5,-,N/A,,Clear,210,2011-12-24 14:53:00
9:53 AM,34.0,30.9,89,30.49,7.0,SW,8.1,-,N/A,,Clear,220,2011-12-24 15:53:00
10:53 AM,39.0,32.0,76,30.48,10.0,WSW,10.4,-,N/A,,Clear,240,2011-12-24 16:53:00
11:53 AM,41.0,32.0,70,30.45,10.0,SW,9.2,-,N/A,,Clear,220,2011-12-24 17:53:00
12:53 PM,44.1,32.0,63,30.42,10.0,SW,5.8,-,N/A,,Clear,220,2011-12-24 18:53:00
1:53 PM,44.6,30.2,57,30.39,10.0,SSW,10.4,-,N/A,,Clear,210,2011-12-24 19:53:00
2:53 PM,45.0,28.9,53,30.38,10.0,SW,4.6,-,N/A,,Clear,230,2011-12-24 20:53:00
3:53 PM,43.0,30.0,60,30.40,10.0,SSW,5.8,-,N/A,,Clear,210,2011-12-24 21:53:00
4:53 PM,41.0,28.0,60,30.39,10.0,SSW,3.5,-,N/A,,Clear,210,2011-12-24 22:53:00
5:53 PM,39.9,28.9,65,30.39,10.0,Calm,Calm,-,N/A,,Clear,0,2011-12-24 23:53:00
6:53 PM,34.0,30.0,85,30.41,10.0,Calm,Calm,-,N/A,,Clear,0,2011-12-25 00:53:00
7:53 PM,34.0,28.9,82,30.40,10.0,Calm,Calm,-,N/A,,Clear,0,2011-12-25 01:53:00
8:53 PM,32.0,28.0,85,30.40,10.0,Calm,Calm,-,N/A,,Clear,0,2011-12-25 02:53:00
9:53 PM,37.0,28.9,73,30.40,10.0,SSW,5.8,-,N/A,,Clear,210,2011-12-25 03:53:00
10:53 PM,33.1,28.0,82,30.40,10.0,Calm,Calm,-,N/A,,Clear,0,2011-12-25 04:53:00
11:53 PM,34.0,28.9,82,30.40,10.0,SW,3.5,-,N/A,,Clear,230,2011-12-25 05:53:00